Location: Gadern
(49.5873°N, 8.8138°E)
Time: 00:57:33
(UTC+00:00)

Cosmos 2181 Rocket - Pass Details

Date: 19 May 2025
Orbit: 952 x 1013 km, 82.9° (Epoch: 21 June)

Event Time Altitude Azimuth Distance (km) Brightness Sun altitude
Exits shadow 20:58:45 15° 172° (S) 2,377 5.5 -13.6°
Maximum altitude 21:03:58 64° 94° (E) 1,091 4.1 -14.1°
Drops below altitude 10° 21:10:16 10° 14° (NNE) 2,784 7.0 -14.6°
Sets 21:12:50 0° 12° (NNE) 3,745 7.8 -14.8°
